Flag for Macedonia, Republic of Weather past 2 weeks in Kumanovo, Macedonia, Republic of

Now
34 °F

Fog.


Feels Like: 34 °F
Forecast: 32 / 49 °F
Wind: No wind

Location: Skopje-Petrovec

Current Time: Dec 19, 2014 at 3:27:19 AM

Latest Report: Dec 19, 2014 at 3:00 AM


Visibility: 2 mi

Pressure: 30.24 "Hg

Humidity: 100%

Dew point: 34 °F

Location of KumanovoLocation

Historic Weather in Kumanovo — Graph

°F

Kumanovo temperature yesterday

Maximum temperature yesterday: 46 °F (at 12:30 PM)
Minimum temperature yesterday: 34 °F (at 11:00 PM)
Average temperature yesterday: 41 °F

Past Weeks' High & Low Weather Summary

 TemperatureHumidityPressure
High55 °F (Dec 6, 11:30 AM)100% (Dec 5, 7:00 AM)30.39 "Hg (Dec 5, 7:00 AM)
Low25 °F (Dec 13, 6:00 AM)58% (Dec 12, 2:00 PM)29.80 "Hg (Dec 9, 3:30 AM)
Average41 °F90%30.10 "Hg
* Reported Dec 4 2:00 AM — Dec 19 2:30 AM, Kumanovo, Weather by CustomWeather, © 2014

Note: Actual official high and low records may vary slightly from our data, if they occured in-between our weather recording intervals... More about our weather records

Advertising

Kumanovo weather history for previous 24 hours

 ConditionsComfort  
Time TempWeatherWind HumidityBarometerVisibility
2:30 AM
Dec 19
34 °FFog.No wind100%30.24 "Hg2 mi
2:00 AM36 °FFog.No wind93%30.24 "Hg3 mi
1:30 AM36 °FFog.No wind93%30.24 "Hg3 mi
12:30 AM34 °FFog.No wind100%30.21 "Hg3 mi
12:00 AM34 °FFog.No wind100%30.21 "Hg3 mi
11:30 PM
Dec 18
34 °FFog.2 mph93%30.21 "Hg3 mi
11:00 PM34 °FFog.2 mph93%30.21 "Hg3 mi
10:30 PM36 °FFog.No wind93%30.21 "Hg3 mi
9:30 PM36 °FFog.No wind93%30.18 "Hg3 mi
9:00 PM36 °FPassing clouds.2 mph100%30.18 "Hg4 mi
8:30 PM37 °FPassing clouds.2 mph93%30.18 "Hg4 mi
8:00 PM37 °FPassing clouds.2 mph93%30.18 "Hg4 mi
7:30 PM37 °FPassing clouds.2 mph93%30.15 "Hg4 mi
7:00 PM37 °FPassing clouds.2 mph93%30.15 "Hg4 mi
6:30 PM36 °FPassing clouds.1 mph93%30.15 "Hg4 mi
6:00 PM36 °FPassing clouds.1 mph93%30.12 "Hg5 mi
5:30 PM37 °FPassing clouds.3 mph87%30.12 "Hg5 mi
5:00 PM37 °FPassing clouds.No wind93%30.09 "HgN/A
4:30 PM41 °FPassing clouds.1 mph93%30.09 "Hg5 mi
4:00 PM43 °FPassing clouds.1 mph87%30.09 "HgN/A
3:30 PM45 °FPassing clouds.No wind81%30.09 "HgN/A
3:00 PM46 °FPassing clouds.1 mph82%30.09 "HgN/A
2:30 PM46 °FPartly sunny.No wind76%30.09 "HgN/A
2:00 PM46 °FLow clouds.No wind76%30.07 "HgN/A
1:30 PM46 °FLow clouds.No wind76%30.07 "HgN/A
1:00 PM46 °FLow clouds.1 mph76%30.07 "HgN/A
12:30 PM46 °FMore clouds than sun.1 mph82%30.07 "HgN/A
12:00 PM45 °FMore clouds than sun.1 mph81%30.07 "Hg4 mi
11:30 AM45 °FMore clouds than sun.No wind81%30.07 "Hg4 mi
11:00 AM43 °FMore clouds than sun.No wind87%30.09 "Hg4 mi
10:30 AM43 °FMore clouds than sun.1 mph87%30.09 "Hg4 mi
10:00 AM41 °FMore clouds than sun.No wind93%30.09 "Hg4 mi
9:30 AM41 °FMore clouds than sun.No wind93%30.09 "Hg4 mi
9:00 AM41 °FLow clouds.No wind93%30.09 "Hg4 mi
8:30 AM39 °FLow clouds.No wind93%30.07 "Hg4 mi
8:00 AM39 °FLow clouds.No wind93%30.07 "Hg4 mi
7:30 AM39 °FLow clouds.No wind93%30.07 "Hg4 mi
7:00 AM39 °FLow clouds.No wind100%30.04 "Hg4 mi
6:30 AM39 °FLow clouds.No wind100%30.04 "Hg4 mi
6:00 AM39 °FLow clouds.No wind100%30.04 "Hg4 mi
5:30 AM41 °FFog.No wind93%30.01 "Hg3 mi
4:00 AM41 °FLow clouds.No wind93%30.01 "Hg4 mi
3:30 AM41 °FLow clouds.No wind93%30.01 "Hg4 mi
3:00 AM41 °FLow clouds.No wind93%30.01 "Hg4 mi
Weather by CustomWeather, © 2014

See weather overviewHow to use our weather pages